TimeHST,TemperatureF,Dew PointF,Humidity,Sea Level PressureIn,VisibilityMPH,Wind Direction,Wind SpeedMPH,Gust SpeedMPH,PrecipitationIn,Events,Conditions,WindDirDegrees,DateUTC
12:53 AM,75.0,62.1,64,29.99,10.0,NE,10.4,-,N/A,,Mostly Cloudy,50,2013-07-02 10:53:00
1:53 AM,73.9,63.0,68,29.98,10.0,North,3.5,-,N/A,,Mostly Cloudy,10,2013-07-02 11:53:00
2:53 AM,75.0,63.0,66,29.97,10.0,NNE,4.6,-,N/A,,Mostly Cloudy,30,2013-07-02 12:53:00
4:53 AM,73.9,64.0,71,29.97,10.0,North,5.8,-,N/A,,Mostly Cloudy,10,2013-07-02 14:53:00
5:53 AM,73.9,64.0,71,29.98,10.0,North,3.5,-,N/A,,Mostly Cloudy,360,2013-07-02 15:53:00
6:53 AM,73.9,66.0,76,30.00,10.0,Calm,Calm,-,N/A,,Mostly Cloudy,0,2013-07-02 16:53:00
7:16 AM,73.4,68.0,83,30.01,7.0,Calm,Calm,-,0.00,Rain,Light Rain,0,2013-07-02 17:16:00
7:23 AM,73.4,68.0,83,30.01,10.0,Calm,Calm,-,0.00,,Mostly Cloudy,0,2013-07-02 17:23:00
7:53 AM,75.0,68.0,79,30.01,10.0,Calm,Calm,-,0.00,,Mostly Cloudy,0,2013-07-02 17:53:00
8:53 AM,75.9,66.0,71,30.02,10.0,ESE,9.2,-,0.00,,Mostly Cloudy,110,2013-07-02 18:53:00
9:53 AM,78.1,64.9,64,30.01,10.0,NE,10.4,17.3,0.01,,Mostly Cloudy,50,2013-07-02 19:53:00
10:53 AM,78.1,64.9,64,30.02,10.0,NE,11.5,-,0.00,,Mostly Cloudy,50,2013-07-02 20:53:00
11:53 AM,80.1,66.0,62,30.00,10.0,North,11.5,-,0.00,,Mostly Cloudy,360,2013-07-02 21:53:00
12:53 PM,79.0,66.0,64,29.99,10.0,ENE,13.8,-,0.00,,Mostly Cloudy,70,2013-07-02 22:53:00
1:53 PM,80.1,66.0,62,29.97,10.0,NNE,11.5,-,N/A,,Mostly Cloudy,30,2013-07-02 23:53:00
2:53 PM,78.1,64.0,62,29.96,10.0,ENE,4.6,-,N/A,,Mostly Cloudy,70,2013-07-03 00:53:00
3:53 PM,81.0,64.9,58,29.94,10.0,NE,10.4,-,N/A,,Mostly Cloudy,40,2013-07-03 01:53:00
4:53 PM,78.1,64.9,64,29.94,10.0,ENE,11.5,-,N/A,,Mostly Cloudy,60,2013-07-03 02:53:00
5:53 PM,78.1,63.0,60,29.94,10.0,ENE,8.1,18.4,N/A,,Mostly Cloudy,60,2013-07-03 03:53:00
6:53 PM,77.0,64.0,64,29.95,10.0,NNE,10.4,-,N/A,,Scattered Clouds,30,2013-07-03 04:53:00
7:53 PM,75.9,64.0,67,29.96,10.0,Variable,3.5,-,N/A,,Scattered Clouds,0,2013-07-03 05:53:00
8:53 PM,75.0,64.0,69,29.96,10.0,NNE,8.1,-,N/A,,Scattered Clouds,30,2013-07-03 06:53:00
9:53 PM,75.0,64.0,69,29.98,10.0,NE,6.9,-,N/A,,Scattered Clouds,40,2013-07-03 07:53:00
10:53 PM,75.0,63.0,66,29.98,10.0,NNE,6.9,17.3,N/A,,Scattered Clouds,30,2013-07-03 08:53:00
11:53 PM,73.9,64.0,71,29.97,10.0,East,10.4,16.1,N/A,,Partly Cloudy,80,2013-07-03 09:53:00